Regional Weather Roundup
Issued by NWS Raleigh/Durham, NC

Home | Current Version | Previous Version | Text Only | Print | Product List | Glossary On
Versions: 1 2 3 4 5 6 7 8 9 10 11 12 13 14 15 16 17 18 19 20 21 22 23 24 25 26 27 28 29 30 31 32 33 34 35 36 37 38 39 40 41 42 43 44 45 46 47 48 49 50
000
ASUS42 KRAH 200510
RWRRAH
NORTH CAROLINA WEATHER ROUNDUP
NATIONAL WEATHER SERVICE RALEIGH NC
1200 AM EST SAT DEC 20 2014

NOTE: "FAIR" INDICATES FEW OR NO CLOUDS BELOW 12,000 FEET WITH NO
SIGNIFICANT WEATHER AND/OR OBSTRUCTIONS TO VISIBILITY.

NCZ001-053-055-056-065-067-200600-
WESTERN NORTH CAROLINA

CITY           SKY/WX    TMP DP  RH WIND       PRES   REMARKS
ASHEVILLE      CLOUDY    40  23  50 CALM      30.16S
JEFFERSON      MOCLDY    32  20  62 CALM      30.13R
MORGANTON      CLOUDY    39  32  77 CALM      30.22S
HICKORY        CLOUDY    43  26  51 E5        30.18R
RUTHERFORDTON  CLOUDY    42  35  75 NW3       30.18S
MOUNT AIRY     CLOUDY    35  28  73 CALM      30.20S
BOONE          CLOUDY    31  24  75 CALM      30.14S
$$

NCZ021-022-025-041-071-084-088-200600-
CENTRAL NORTH CAROLINA

CITY           SKY/WX    TMP DP  RH WIND       PRES   REMARKS
CHARLOTTE      CLOUDY    48  25  40 E7        30.19R
GREENSBORO     MOCLDY    40  26  57 CALM      30.19R
WINSTON-SALEM  CLOUDY    40  24  53 E5        30.21R
RALEIGH-DURHAM MOCLDY    37  28  70 CALM      30.22R
FORT BRAGG     MOCLDY    41  32  72 CALM      30.21R
FAYETTEVILLE   MOCLDY    42  32  67 CALM      30.20R
BURLINGTON     MOCLDY    36  28  73 CALM      30.21R
LAURINBURG     CLOUDY    41  33  73 E6        30.20R
$$

NCZ011-015-027-028-043-044-047-080-103-200600-
NORTHEASTERN NORTH CAROLINA

CITY           SKY/WX    TMP DP  RH WIND       PRES   REMARKS
ROCKY MT-WILSO MOCLDY    33  31  92 CALM      30.22S
GREENVILLE     MOCLDY    34  32  93 CALM      30.22F
WASHINGTON     PTCLDY    32  29  90 E3        30.22S
ELIZABETH CITY PTCLDY    40  31  70 N6        30.24S
MANTEO         PTCLDY    39  32  76 N7        30.24R WCI  34
CAPE HATTERAS  PTCLDY    41  33  73 NE3       30.22S
$$

NCZ078-087-090-091-093-098-101-200600-
SOUTHEASTERN NORTH CAROLINA

CITY           SKY/WX    TMP DP  RH WIND       PRES   REMARKS
LUMBERTON      CLOUDY    45  32  60 NE6       30.19S
GOLDSBORO      MOCLDY    38  37  95 E2        30.20R
KINSTON        MOCLDY    35  32  90 CALM      30.22S
KENANSVILLE    MOCLDY    38  32  79 CALM      30.22R
NEW BERN       PTCLDY    37  31  78 CALM      30.22F
CHERRY POINT   PTCLDY    37  32  82 CALM      30.22S
BEAUFORT       PTCLDY    41  37  86 NE5       30.20F
JACKSONVILLE   MOCLDY    43  32  65 NE5       30.21S
WILMINGTON     MOCLDY    42  33  70 NE9       30.19S
$$




USA.gov is the U.S. government's official web portal to all federal, state and local government web resources and services.